Deer Park, WA
on Tuesday, November 27, 2012

Tuesday
Previous Day Next Day
Daily Summary
 ActualAverageRecord
Temperature
Mean Temperature °F 30°F  
Max Temperature 40°F 36°F 51°F (2011)
Min Temperature 27°F 23°F 3°F (2007)
Degree Days
Heating Degree Days 31 35  
Month to date heating degree days 744 828  
Since 1 July heating degree days 1656 1896  
Cooling Degree Days 0 0  
Month to date cooling degree days 0 0  
Year to date cooling degree days 232 187  
Moisture
Dew Point 26°F   
Average Humidity 76    
Maximum Humidity 92    
Minimum Humidity 59    
Precipitation
Precipitation 0.00 in 0.12 in 0.40 in (2010)
Month to date precipitation 3.55 2.96  
Year to date precipitation 23.55 19.02  
Snow
Snow 0.00 in in in ()
Month to date snowfall  
Since 1 July snowfall  
Since 1 September snowfall  
Snow Depth in   
Wind
Wind Speed 6 mph   
Max Wind Speed 12 mph   
Max Gust Speed 15 mph   
Visibility 10 miles   
Events     

Key: T is trace of precipitation, MM is missing value
Source: NWS Daily Summary
Time(PST)TemperatureDew PointHumidity Pressure Visibility Wind DirectionWind SpeedGust SpeedPrecipitationEvents Conditions
12:53 AM 28.0°F 26.1°F 92% 30.25 in 10.0 miles North 3.5 mph - N/A   Overcast
1:53 AM 28.9°F 27.0°F 92% 30.25 in 10.0 miles North 3.5 mph - N/A   Overcast
2:53 AM 28.9°F 27.0°F 92% 30.26 in 10.0 miles North 5.8 mph - N/A   Overcast
4:53 AM 28.9°F 26.1°F 89% 30.26 in 10.0 miles North 4.6 mph - N/A   Overcast
5:53 AM 28.9°F 26.1°F 89% 30.27 in 10.0 miles North 4.6 mph - N/A   Overcast
6:53 AM 30.0°F 26.1°F 85% 30.27 in 10.0 miles North 3.5 mph - N/A   Overcast
7:53 AM 30.9°F 26.1°F 82% 30.28 in 10.0 miles NNE 5.8 mph - N/A   Overcast
8:53 AM 32.0°F 26.1°F 79% 30.29 in 10.0 miles North 5.8 mph - N/A   Overcast
9:53 AM 33.1°F 26.1°F 75% 30.29 in 10.0 miles NNE 4.6 mph - N/A   Overcast
10:53 AM 34.0°F 26.1°F 73% 30.27 in 10.0 miles NNE 5.8 mph - N/A   Overcast
11:53 AM 35.1°F 27.0°F 72% 30.25 in 10.0 miles NNE 8.1 mph - N/A   Overcast
12:53 PM 39.0°F 27.0°F 62% 30.22 in 10.0 miles NE 10.4 mph - N/A   Scattered Clouds
1:53 PM 37.9°F 27.0°F 65% 30.21 in 10.0 miles North 8.1 mph - N/A   Clear
2:53 PM 37.0°F 27.0°F 67% 30.21 in 10.0 miles NNE 8.1 mph - N/A   Clear
3:53 PM 35.1°F 27.0°F 72% 30.21 in 10.0 miles North 5.8 mph - N/A   Clear
4:53 PM 33.1°F 26.1°F 75% 30.19 in 10.0 miles NNE 9.2 mph - N/A   Clear
5:53 PM 33.1°F 26.1°F 75% 30.18 in 10.0 miles NNE 8.1 mph - N/A   Clear
6:53 PM 32.0°F 26.1°F 79% 30.18 in 10.0 miles NNE 4.6 mph - N/A   Clear
7:53 PM 30.0°F 26.1°F 85% 30.17 in 10.0 miles NNW 4.6 mph - N/A   Clear
8:53 PM 28.9°F 25.0°F 85% 30.17 in 10.0 miles North 3.5 mph - N/A   Clear
9:53 PM 30.9°F 27.0°F 85% 30.16 in 10.0 miles NNE 4.6 mph - N/A   Clear
10:53 PM 30.0°F 26.1°F 85% 30.16 in 10.0 miles NNW 4.6 mph - N/A   Clear
11:53 PM 28.9°F 26.1°F 89% 30.16 in 10.0 miles NNW 3.5 mph - N/A   Clear
Moon Phase
Nov. 27 Nov. 28 Dec. 06 Dec. 13 Dec. 20
Sunrise:07:13 AM (PST) Moon Rise:03:36 PM (PST)
Sunset:04:00 PM (PST) Moon Set:06:21 AM (PST)

Copyright © 2014 The Weather Underground, Inc.